Theta_e
319 320 321 320 319 318 318 319 318 316 316 323 324 323 323 333 333 332 330 329 329 330 328 326 326 325 326 326 326 327 328 328 328 323 321 321 322 323 326 327 325 324 321 320
319 322 320 316 318 319 319 320 320 318 317 318 317 318 317 329 332 330 330 329 328 329 329 327 326 325 325 326 326 326 326 327 327 323 320 320 321 323 326 326 324 322 319 316
321 320 316 319 319 320 319 320 320 320 318 315 316 316 318 322 327 329 328 328 328 330 331 330 327 326 326 326 325 326 326 326 325 322 319 320 322 323 323 321 320 318 316 315
319 317 318 318 320 319 319 318 319 320 321 321 316 322 316 316 326 328 329 329 328 329 329 331 330 328 327 326 325 325 326 326 326 325 321 321 322 322 320 318 319 317 315 314
319 319 319 320 319 318 320 318 320 320 320 321 319 321 320 314 318 325 330 331 331 330 329 330 331 330 328 326 325 325 325 326 326 326 323 321 321 322 320 319 318 315 313 311
316 316 317 318 318 317 318 320 318 319 320 324 320 320 322 319 318 318 321 328 331 330 329 329 330 330 328 326 325 325 325 325 324 324 322 321 321 320 319 317 315 314 312 310
317 318 317 318 320 318 318 320 323 326 326 324 320 321 322 318 317 318 319 321 328 329 328 327 329 329 328 325 325 325 325 325 324 322 321 322 322 320 319 318 318 314 310 309
319 319 319 319 320 321 320 321 326 322 324 321 318 324 321 319 317 317 317 316 316 327 328 326 327 327 327 325 325 325 325 325 324 322 321 324 324 321 318 319 318 315 312 310
319 318 318 319 320 319 321 322 318 322 320 325 321 319 316 316 318 319 320 318 318 319 325 324 324 325 325 324 325 325 325 324 324 322 322 323 323 320 319 321 319 314 310 308
318 319 320 320 319 318 320 318 323 321 324 324 319 318 318 318 320 319 319 321 319 318 317 319 321 322 323 324 324 324 324 324 324 323 321 321 322 320 320 320 316 311 307 308
316 317 317 320 321 321 321 320 318 318 319 322 322 320 317 317 318 320 319 319 320 318 320 318 319 320 323 324 324 324 324 324 324 323 322 321 320 319 320 320 316 312 310 310
317 318 321 320 318 316 318 321 320 325 321 318 319 320 315 315 313 313 317 317 319 322 320 321 320 322 324 325 325 325 324 325 324 323 322 321 320 320 319 317 315 311 308 304
318 317 319 317 317 319 321 319 318 317 317 320 326 323 314 314 315 313 314 315 316 319 324 323 323 324 325 325 325 325 324 324 323 321 320 320 318 317 312 309 308 306 303 301
316 317 319 319 318 318 322 321 318 321 323 323 320 321 319 318 316 316 315 312 311 311 318 324 324 324 323 324 324 323 322 322 321 319 318 314 310 308 308 308 307 306 302 302
319 320 317 315 314 316 318 320 319 320 321 323 322 317 318 317 316 312 311 313 318 318 317 319 321 323 323 322 321 318 316 317 316 314 311 308 308 307 304 302 302 302 303 301
315 319 317 317 315 315 316 316 317 318 317 317 316 317 315 313 311 313 314 317 318 317 316 316 316 318 319 317 315 312 311 310 310 309 307 305 303 302 302 301 301 300 300 298
317 318 318 320 315 316 319 318 316 316 315 318 319 319 313 313 313 312 313 314 313 311 311 312 311 311 312 311 309 309 308 307 306 305 303 301 301 301 300 299 298 295 294 295
317 316 315 318 313 323 320 313 314 317 316 313 312 312 311 312 310 308 307 309 306 305 306 305 306 305 305 305 304 303 302 302 300 299 298 299 298 297 297 297 298 297 297 298
314 314 315 321 320 317 314 313 315 317 317 313 313 310 311 310 310 308 302 301 301 300 299 299 299 300 300 300 300 300 299 299 297 296 297 298 299 299 298 298 298 298 298 296
311 312 320 313 320 322 319 313 310 312 317 312 311 312 313 312 318 315 302 299 298 297 297 297 297 297 298 298 298 298 297 297 298 298 299 298 299 299 299 297 294 293 293 292
317 314 319 314 321 318 312 312 310 319 319 312 311 312 314 314 311 305 299 298 297 297 296 296 297 297 296 297 298 298 298 298 298 299 298 298 297 295 293 292 292 291 290 290
320 319 319 314 318 322 312 309 316 318 310 312 311 312 312 304 301 300 298 297 296 296 296 296 296 296 296 297 298 298 296 295 294 294 293 291 290 290 290 289 289 289 289 289
322 319 321 319 322 316 311 315 311 309 313 311 312 310 305 302 300 299 297 296 296 295 295 295 295 294 294 294 294 293 291 291 291 290 289 289 289 289 289 288 288 288 288 287
315 315 318 317 316 315 313 312 310 310 311 309 310 307 304 302 299 297 296 295 295 295 294 294 293 292 291 290 289 289 290 290 290 288 288 287 286 285 285 284 284 284 284 284
316 317 316 316 315 314 314 312 310 308 307 305 304 303 302 300 298 296 295 295 294 294 292 292 291 290 289 287 286 287 287 287 287 286 284 283 282 282 282 282 282 281 282 282
315 316 318 320 317 318 317 313 307 307 306 304 302 300 299 299 297 296 295 294 293 292 291 291 289 287 285 284 283 283 283 283 283 282 281 280 280 280 280 280 280 279 279 279
Wind_Speed
1 2 6 10 4 2 3 1 2 1 2 4 6 9 8 14 12 13 12 12 12 14 13 18 23 22 22 23 23 23 23 24 24 25 22 22 24 23 22 22 19 18 21 22
1 5 7 3 3 3 4 1 2 3 2 4 1 8 4 16 19 18 17 15 16 13 11 15 22 24 27 28 31 29 28 28 28 27 25 18 20 23 23 23 21 20 22 24
5 3 4 4 4 5 4 5 4 1 1 1 3 4 2 7 12 14 16 17 15 15 15 14 20 26 26 27 32 31 29 28 28 25 24 22 20 19 21 21 22 22 24 25
5 2 5 5 5 6 3 5 5 2 2 2 3 3 4 4 11 13 17 16 18 18 17 15 21 24 27 28 26 27 27 27 29 28 26 27 20 19 20 22 22 23 25 24
5 5 4 4 5 6 5 2 2 2 3 1 2 3 3 0 7 16 18 19 19 19 19 20 22 25 25 24 25 27 26 27 28 32 31 31 24 18 19 23 21 22 24 24
4 1 3 4 1 4 4 3 5 3 2 1 1 3 3 5 5 3 10 18 19 19 19 20 24 22 23 22 25 28 27 26 27 28 29 28 23 22 20 20 24 24 25 25
1 2 2 3 3 2 2 3 0 1 1 3 3 2 7 3 7 8 9 11 17 18 17 17 18 22 23 25 27 27 27 27 26 28 27 30 34 29 26 24 26 25 22 26
6 3 6 4 4 5 4 3 4 3 3 1 0 4 3 3 8 7 7 9 8 16 17 18 19 24 25 26 26 27 28 27 25 27 29 32 32 32 25 26 26 27 32 29
6 5 1 1 2 2 4 2 1 6 2 0 2 5 8 3 4 3 6 6 4 8 13 16 16 22 23 24 28 30 26 24 25 27 27 34 36 31 29 30 25 25 25 29
7 3 1 2 2 3 1 8 3 1 3 3 2 3 4 4 3 4 3 5 7 3 8 11 12 20 22 22 22 21 23 24 23 23 25 29 32 31 32 29 26 23 25 27
5 3 1 1 5 8 3 2 3 4 1 2 2 3 6 5 2 4 3 4 5 6 5 8 10 15 16 16 18 20 22 22 22 22 22 23 26 25 28 28 27 27 25 27
6 4 4 6 1 1 2 6 5 3 3 0 1 5 3 6 5 6 8 5 4 4 5 4 7 12 14 16 18 19 18 20 20 19 21 22 24 25 24 26 28 30 32 30
8 2 2 1 1 2 3 4 4 5 3 7 4 4 3 3 3 4 8 6 4 4 4 4 6 9 10 10 11 12 12 15 17 19 19 20 21 20 21 22 23 22 24 31
10 4 6 10 7 4 4 6 7 6 3 5 7 8 9 9 7 7 7 8 9 6 4 4 2 1 2 3 5 7 10 13 15 14 13 11 10 12 13 16 18 20 24 24
5 7 6 4 4 5 5 5 12 11 10 8 11 10 10 7 4 4 5 4 7 8 6 1 2 3 4 6 6 6 6 7 8 8 8 9 10 10 12 15 15 21 19 16
2 5 5 3 2 7 5 8 7 7 4 9 8 7 11 3 3 2 3 6 8 8 10 9 8 6 7 8 9 9 9 9 10 12 12 12 15 16 18 21 18 16 14 11
4 5 4 5 2 5 4 7 9 5 5 6 8 11 6 6 6 5 5 6 7 7 8 10 10 11 12 12 12 14 14 14 16 16 16 17 19 21 19 18 17 16 11 9
5 5 2 3 1 4 3 1 3 9 6 8 4 4 4 4 7 6 3 6 6 6 7 9 11 14 15 16 18 19 19 19 20 22 24 23 24 26 22 18 11 6 3 10
3 5 3 5 4 3 2 5 7 7 11 7 11 5 5 11 8 3 3 5 7 7 8 11 13 15 17 18 18 22 22 23 27 27 28 26 22 18 12 9 3 5 11 12
5 4 3 3 5 8 8 4 6 4 8 8 11 11 16 12 7 6 8 7 9 11 11 14 15 18 20 18 21 26 26 27 25 21 18 16 12 7 2 3 1 3 5 8
3 2 7 3 4 5 6 5 6 6 9 5 12 12 16 10 1 10 12 9 11 13 15 16 18 21 20 20 24 27 24 21 17 14 12 9 7 6 5 4 6 8 9 11
6 7 4 3 1 7 7 6 9 7 3 6 10 11 13 11 13 13 12 12 13 16 18 19 23 22 20 20 23 22 19 14 14 15 14 12 9 7 6 7 7 8 9 12
4 6 5 9 6 2 13 4 5 3 4 6 12 12 16 17 11 14 13 13 14 18 20 21 24 24 20 18 18 20 13 13 14 14 12 11 9 8 8 8 9 10 11 12
4 4 3 2 4 5 5 3 3 2 4 4 6 16 16 15 17 16 14 13 15 20 21 22 24 22 20 18 18 16 14 13 13 13 11 9 9 9 9 9 9 10 12 14
3 8 6 4 4 4 10 10 3 3 4 10 11 12 17 20 17 17 16 15 20 21 20 20 21 21 19 18 18 17 15 11 12 10 9 9 9 10 9 9 10 10 10 11
5 6 5 6 8 6 5 8 12 11 9 12 18 14 14 19 20 19 15 21 22 21 21 21 20 20 17 17 17 15 13 11 10 10 9 9 8 9 9 10 11 10 10 11
Wind_Direction
36 176 219 226 228 155 160 201 338 264 173 203 238 265 213 193 207 215 223 211 217 217 196 192 188 189 193 201 208 214 214 212 207 202 197 201 202 204 210 216 218 214 202 196
96 238 230 198 179 201 163 100 313 315 8 215 274 294 216 190 209 211 208 218 223 219 215 201 195 195 198 200 204 208 211 212 207 205 205 202 204 210 214 215 212 211 207 199
182 199 118 165 198 220 212 169 172 274 260 170 2 295 277 198 221 217 229 226 229 232 223 211 199 202 205 205 204 206 208 210 207 203 206 205 209 217 214 212 207 206 206 204
234 233 182 207 225 181 259 185 175 107 29 290 347 302 278 225 216 216 226 225 225 215 225 222 209 208 208 214 213 212 212 214 214 214 210 208 204 205 212 211 207 208 207 206
230 179 178 191 221 166 234 170 65 106 170 153 158 207 273 16 244 229 226 224 225 221 209 217 218 211 210 212 212 214 213 214 216 217 215 212 213 213 222 216 208 208 209 206
211 213 193 205 162 185 121 92 55 72 95 198 211 206 265 211 229 278 246 227 221 219 213 215 214 213 210 206 207 212 212 215 215 213 213 217 218 220 215 204 204 209 209 205
2 213 245 165 149 117 130 118 325 104 130 217 125 192 248 237 245 251 266 243 222 214 216 211 205 203 206 203 208 211 213 215 212 214 213 223 230 226 220 211 213 208 202 205
178 240 187 182 192 180 172 190 165 190 182 275 16 237 240 217 284 287 277 281 250 214 213 213 212 208 208 207 207 208 213 215 210 211 213 225 236 228 220 223 227 225 217 212
155 239 190 202 147 183 153 179 93 103 26 149 246 277 273 308 322 332 332 329 305 225 222 223 221 215 213 209 210 212 213 216 214 214 209 222 228 229 230 236 235 233 217 209
194 157 227 161 164 37 222 145 134 48 171 236 248 275 259 325 348 328 2 331 307 280 216 215 214 213 215 215 214 212 214 217 217 215 212 217 230 234 238 232 226 218 212 206
137 130 217 158 205 177 147 173 68 123 149 204 245 243 215 242 275 305 291 269 272 275 246 216 215 215 212 208 207 213 215 215 217 217 216 220 230 228 236 228 224 217 210 205
187 153 177 197 141 283 206 177 157 154 196 352 264 262 257 254 272 287 287 272 270 259 254 231 207 204 204 210 212 214 215 216 219 218 216 222 229 231 228 221 215 211 201 196
174 187 147 355 46 34 228 194 140 107 96 191 206 246 185 290 293 251 280 304 285 256 242 234 213 207 208 212 214 211 210 216 221 222 224 225 227 220 209 207 204 200 196 186
130 141 172 220 221 157 191 200 180 155 162 196 226 256 269 277 282 289 310 325 316 304 268 265 266 255 183 164 186 192 205 212 222 221 216 209 194 183 192 199 190 185 182 173
149 186 180 232 232 189 217 185 181 197 215 198 239 214 250 252 247 309 315 353 26 25 35 97 183 179 169 144 145 136 155 167 176 171 156 145 169 175 168 158 151 160 163 169
229 180 147 211 154 196 218 229 205 226 214 243 248 251 235 190 156 81 58 89 72 48 51 57 70 90 99 106 106 108 116 121 132 127 124 129 139 140 149 146 142 146 151 154
176 137 133 223 170 149 302 213 194 192 207 199 202 229 163 189 152 117 91 87 86 72 64 66 65 69 81 90 100 100 103 107 105 107 111 121 132 127 126 127 124 122 121 141
159 138 110 156 148 208 232 63 181 215 242 220 261 230 204 156 111 97 57 121 103 87 79 74 80 84 86 94 98 103 105 104 103 101 104 112 113 111 110 104 93 92 169 276
182 132 124 155 205 303 212 195 183 176 251 212 227 197 154 137 129 100 80 91 104 96 87 85 88 91 93 96 104 103 99 99 98 98 100 101 100 93 79 59 18 269 269 280
94 59 133 151 187 210 215 210 152 129 277 206 191 177 161 157 175 172 156 131 108 101 100 102 101 101 100 104 107 104 104 101 97 99 97 94 85 71 311 298 1 299 288 296
125 73 192 167 222 276 246 166 153 160 252 182 190 171 165 183 106 129 135 120 112 115 113 110 104 101 102 108 108 104 103 97 105 102 97 83 71 68 53 25 348 329 325 320
171 160 179 118 187 252 153 114 176 212 176 175 175 166 158 125 124 129 129 128 126 119 113 109 104 100 101 105 103 97 89 93 95 98 91 81 69 56 34 15 1 349 340 329
255 205 183 189 210 205 193 192 171 169 182 187 165 158 142 139 145 141 137 133 128 121 114 112 107 100 91 91 95 96 93 100 99 92 81 72 63 50 33 21 6 349 342 335
232 195 209 146 207 222 228 262 249 203 218 176 154 148 146 143 145 137 136 134 128 124 118 117 109 101 91 86 83 88 95 99 94 84 72 56 44 26 17 13 7 355 349 343
186 151 175 264 263 297 255 235 196 194 142 119 114 139 142 135 142 140 139 136 130 125 121 117 111 105 99 94 87 86 86 86 82 75 59 42 29 20 12 14 7 2 355 346
189 173 174 216 199 189 217 191 166 162 173 150 128 122 135 141 141 140 134 134 131 125 123 115 111 108 104 96 87 77 72 70 71 63 46 34 25 18 15 3 357 359 1 355